Theta_e
349 356 359 358 358 357 357 357 357 357 357 356 356 355 355 355 355 354 354 354 353 353 353 352 352 353 353 353 353 353 353 353 353 353 350 349 347 346 346 344 346 344 345
352 357 360 359 358 357 356 356 356 356 356 355 355 354 354 354 354 354 354 354 354 354 354 354 354 354 353 353 354 353 353 353 353 353 354 352 350 347 345 344 346 346 345
350 357 356 359 358 357 356 356 355 355 355 354 354 354 354 354 353 353 353 354 354 354 354 353 353 353 353 353 354 354 354 353 353 353 353 352 353 350 346 345 345 345 345
353 357 355 358 358 357 356 355 355 355 354 354 353 353 352 352 351 351 352 352 352 352 353 353 353 353 353 352 352 352 353 354 353 353 349 347 351 351 349 347 346 346 345
352 354 360 359 358 356 356 355 354 353 353 352 352 351 351 352 351 352 352 353 353 353 354 354 353 354 354 353 353 353 352 352 352 350 346 345 349 351 348 351 349 348 347
347 351 359 359 358 356 355 354 353 352 352 351 351 352 353 353 353 353 353 354 353 354 355 355 355 354 354 354 354 353 353 352 352 347 348 349 348 351 351 352 352 349 349
345 348 355 358 357 356 355 354 352 351 351 351 351 351 352 353 354 354 355 355 354 354 354 355 354 353 354 353 354 354 353 353 351 347 348 351 350 347 348 351 354 353 351
345 347 354 356 357 356 354 353 352 351 352 350 350 351 353 353 352 352 353 354 351 351 353 351 348 349 352 352 352 352 351 351 347 348 349 350 350 344 349 351 353 355 353
345 346 349 349 355 355 355 355 353 352 350 349 350 352 353 347 351 351 351 348 345 347 347 344 340 344 347 350 349 349 348 347 338 343 345 348 349 348 349 350 353 354 357
343 343 345 348 347 349 349 355 353 351 349 349 351 351 347 341 346 339 341 346 346 346 344 339 336 337 342 344 343 342 343 345 337 336 339 346 345 345 347 349 350 354 358
342 344 345 345 346 348 349 351 351 351 351 352 352 348 343 343 340 340 340 338 338 345 343 340 339 339 341 344 342 339 340 328 329 331 334 342 342 344 345 347 348 349 353
340 344 346 347 348 347 346 350 352 351 351 353 349 348 341 342 342 337 337 336 335 338 339 343 342 343 341 330 330 339 328 328 326 327 329 339 340 341 342 343 346 348 348
343 346 347 348 349 348 348 352 350 350 351 353 353 347 345 341 340 339 338 337 339 339 335 336 334 332 330 330 329 330 329 329 328 327 331 337 337 337 335 337 343 346 346
344 347 347 347 350 351 352 351 353 351 352 350 348 346 345 339 340 339 337 338 337 334 335 335 333 334 335 336 334 331 329 328 327 327 331 335 337 336 333 334 337 341 347
346 347 349 351 352 354 355 354 355 352 349 348 343 345 340 338 339 338 338 333 329 328 328 328 330 332 333 333 332 330 328 328 329 328 328 336 334 332 332 331 331 334 339
350 351 351 353 355 351 351 351 349 346 345 342 344 342 341 339 336 329 327 325 325 325 325 325 325 328 328 329 329 329 330 330 329 330 329 330 335 332 331 332 332 331 334
349 351 350 351 348 344 344 344 343 341 341 342 342 339 335 334 332 331 325 324 324 326 325 325 325 325 325 327 328 328 328 328 328 330 329 329 329 336 335 333 331 331 333
346 348 346 340 341 343 342 342 341 342 342 342 341 338 333 330 329 329 325 324 326 325 323 323 322 322 323 323 324 326 327 328 329 329 329 328 328 328 333 338 336 332 332
346 347 345 345 341 342 344 342 343 340 341 343 342 336 334 328 328 329 325 325 328 324 322 321 321 322 321 322 322 323 324 325 327 326 327 326 326 326 325 329 335 332 331
341 347 348 346 344 344 343 344 340 340 342 343 340 334 331 329 328 328 326 326 326 322 321 321 322 321 321 322 321 322 323 323 324 324 323 322 323 323 324 326 326 328 336
338 342 344 344 346 343 340 336 337 338 341 341 336 332 331 329 328 329 326 325 325 322 321 321 320 319 319 322 316 320 321 323 324 323 322 322 323 325 327 328 329 329 332
337 338 342 344 346 345 341 343 342 340 338 334 331 332 331 330 330 328 327 324 324 321 321 320 317 314 314 318 313 314 310 315 318 319 320 320 321 324 325 327 331 331 332
339 340 341 344 345 346 345 344 341 340 335 330 330 328 329 329 328 327 326 324 323 321 317 318 317 315 312 315 318 314 307 306 311 316 319 318 322 322 326 330 330 330 332
340 339 338 341 344 345 343 340 339 333 328 329 328 327 328 328 327 326 324 322 320 317 317 316 314 313 313 308 313 314 316 313 307 306 315 319 321 322 326 328 329 329 332
338 339 341 341 343 342 339 339 335 332 329 327 325 328 328 327 324 322 320 319 318 316 317 314 316 313 312 312 311 313 312 313 313 307 307 310 316 324 325 324 327 329 331
340 341 341 340 342 341 338 335 334 332 328 325 325 322 320 320 319 319 318 319 319 318 317 316 316 316 315 314 313 310 308 306 308 307 306 308 310 314 321 324 322 324 328
Wind_Speed
11 16 14 13 12 11 10 9 9 10 10 9 9 8 8 8 8 8 8 8 8 8 8 8 8 8 8 8 9 9 8 8 8 7 5 3 5 4 4 2 7 11 7
13 16 14 13 11 9 9 9 9 9 8 8 8 7 7 6 6 6 6 6 6 6 6 7 7 7 7 8 7 8 9 9 9 8 7 8 7 4 3 3 7 10 6
14 15 15 11 10 9 9 8 7 7 7 6 6 6 5 4 4 3 3 4 4 5 4 4 4 4 5 6 6 6 7 8 9 9 11 9 3 6 2 1 2 4 4
14 13 13 12 10 8 8 8 7 6 5 5 5 4 3 3 3 3 3 3 3 4 4 4 5 5 5 5 6 6 6 7 8 9 12 4 4 10 4 3 2 2 3
13 13 14 12 10 8 7 7 7 5 4 3 2 2 2 1 1 2 3 3 4 5 5 5 5 6 7 8 7 8 8 8 9 12 8 6 6 10 0 5 7 7 4
13 13 15 11 9 8 7 6 5 4 3 2 1 2 3 3 4 3 3 4 4 5 6 6 7 7 8 8 9 8 8 9 11 15 4 1 7 11 8 7 8 5 6
10 11 14 10 8 7 6 5 4 2 1 2 3 4 4 5 4 5 4 5 5 5 5 6 7 8 8 7 8 8 8 8 11 13 5 6 6 8 6 6 9 9 8
10 8 13 11 8 7 5 4 3 2 1 2 3 4 5 5 4 3 2 1 4 4 4 5 5 6 8 7 6 6 6 8 13 7 7 7 10 4 6 6 8 12 12
9 9 8 11 9 7 6 5 4 2 1 2 2 4 5 5 6 6 3 3 4 3 2 1 3 5 5 5 5 4 4 7 13 3 7 6 10 7 8 10 10 12 14
9 9 9 6 11 9 11 7 4 3 1 1 1 3 1 3 2 3 3 10 9 7 3 3 2 2 3 2 1 4 7 13 14 8 7 7 11 9 10 10 11 12 15
7 6 6 7 7 4 2 8 7 6 5 5 7 4 8 2 4 5 8 5 7 7 7 8 7 7 7 10 8 4 10 7 8 5 7 13 7 8 9 10 11 11 10
9 8 6 5 4 5 4 4 6 4 5 1 2 3 5 4 5 7 5 4 5 5 8 9 9 9 12 10 5 9 6 8 9 6 5 9 5 7 8 9 10 11 11
6 5 7 6 5 5 4 3 4 4 4 4 2 4 2 5 4 6 5 5 7 5 8 7 8 10 14 11 11 9 9 9 6 6 4 7 2 8 9 9 10 10 10
5 6 7 6 6 5 4 5 4 5 3 3 1 3 2 5 4 5 5 8 8 8 10 10 8 12 13 13 13 13 13 10 8 6 9 7 2 8 9 9 9 10 9
6 7 6 6 6 5 6 5 6 4 4 1 4 1 4 5 4 5 6 8 9 10 11 11 11 11 12 14 14 14 13 13 12 8 8 6 6 8 9 9 9 10 12
5 4 5 7 6 5 5 5 3 3 3 5 2 2 2 5 5 7 9 9 9 9 10 11 12 12 11 13 14 14 13 13 13 13 10 10 12 10 10 11 11 12 11
6 3 5 5 6 5 6 5 3 4 2 2 1 4 5 4 6 8 7 7 7 8 11 10 11 11 12 12 13 12 13 14 13 12 10 11 11 14 14 13 11 12 14
5 7 5 5 6 6 5 5 3 2 2 2 2 3 5 4 4 7 8 7 8 9 9 9 10 11 11 11 12 12 11 12 13 12 12 12 11 11 8 13 14 10 13
6 7 7 7 7 6 5 4 3 3 1 1 1 5 3 6 7 7 8 7 9 10 10 10 10 11 11 11 12 12 12 12 12 11 12 13 14 14 12 17 14 9 13
4 6 7 7 5 5 3 3 3 3 3 3 4 4 4 6 7 7 9 7 8 9 10 10 12 11 11 11 11 11 11 11 11 10 10 12 12 14 14 15 13 11 17
4 5 6 6 6 5 5 5 5 5 4 4 4 5 6 6 8 7 8 8 9 9 10 11 11 14 11 10 8 11 11 8 10 9 9 10 9 12 8 11 8 9 8
3 4 5 7 7 7 5 4 4 5 5 5 5 5 6 7 9 9 8 9 10 11 12 10 6 10 10 9 8 8 9 10 8 6 6 8 10 9 9 8 6 4 6
7 5 5 6 6 7 6 3 4 4 5 8 4 6 4 8 9 9 10 10 11 11 11 9 9 11 11 11 11 5 4 6 8 7 3 5 4 6 8 6 5 5 7
7 5 4 4 5 5 3 4 4 7 7 6 7 6 8 8 9 10 12 13 13 11 11 8 8 9 10 10 8 7 6 5 6 7 4 3 4 5 5 4 4 3 5
1 4 3 3 5 4 4 4 5 5 7 6 7 8 10 8 10 11 12 13 10 8 7 9 10 9 9 7 6 6 5 6 6 5 10 5 6 2 2 4 5 3 4
1 0 3 4 3 3 4 3 4 5 7 8 9 9 9 10 9 11 12 10 11 11 11 10 10 11 10 8 4 3 3 3 3 2 5 8 8 8 6 4 4 3 4
Wind_Direction
153 130 153 155 156 150 140 133 121 113 108 107 102 94 90 81 75 70 65 58 52 48 42 39 35 29 27 23 16 12 12 8 3 5 12 74 104 97 92 69 302 90 86
144 143 156 158 157 146 134 130 121 114 111 109 106 102 93 82 67 60 54 48 45 40 38 27 23 16 13 9 4 359 354 353 349 344 324 226 158 126 109 79 14 77 83
150 138 161 155 154 152 143 125 113 112 114 113 105 98 92 94 90 71 49 32 18 13 16 12 5 1 355 349 344 340 339 338 335 327 298 286 72 136 167 134 91 91 94
143 148 146 152 160 153 141 130 130 129 125 116 111 109 103 78 48 32 14 4 353 345 343 346 342 332 325 317 314 315 319 317 315 307 274 317 318 138 185 207 195 153 141
154 151 121 154 161 158 148 148 142 135 131 116 95 79 75 48 22 355 347 330 331 331 333 330 327 321 315 308 303 302 303 300 297 278 285 302 342 93 284 222 207 199 206
156 146 129 153 163 164 161 154 143 147 139 134 107 27 2 354 346 344 345 335 329 319 324 324 324 323 314 307 302 299 298 298 292 266 244 242 267 51 9 263 240 256 196
150 146 147 159 165 165 166 164 157 153 109 24 30 12 2 347 338 337 338 340 345 338 334 333 333 332 328 313 299 297 294 288 281 300 311 245 297 52 336 306 238 240 229
151 154 133 156 169 171 173 181 167 136 41 19 16 8 355 350 345 349 334 350 344 341 345 346 352 5 1 3 355 340 323 300 286 302 282 280 88 65 320 320 279 239 233
153 168 162 167 168 180 188 190 182 149 9 4 4 2 2 23 34 42 31 36 5 10 3 353 358 0 356 7 21 7 337 299 294 262 300 295 47 3 317 309 309 267 237
165 171 171 191 176 191 169 182 193 175 187 283 339 23 339 198 36 69 251 37 353 328 262 236 266 289 273 273 11 339 296 266 267 318 298 49 18 328 314 308 311 323 242
162 171 176 184 164 214 153 137 195 198 195 216 204 175 226 327 349 310 79 357 339 317 291 283 279 259 252 234 194 195 275 300 322 314 291 64 1 327 323 318 315 316 315
163 173 179 199 193 201 210 202 210 185 229 255 307 313 279 349 332 308 284 263 263 278 280 266 271 279 255 277 288 202 297 321 296 302 299 75 340 325 329 331 323 314 318
147 165 177 180 208 239 212 206 219 220 213 185 253 290 311 314 341 300 304 307 334 255 283 277 285 266 296 309 302 297 292 288 278 290 284 113 297 308 325 327 331 319 324
174 191 178 195 199 222 234 218 243 250 227 242 165 257 265 275 319 336 335 330 321 324 323 294 297 298 296 283 282 286 286 286 281 301 297 139 215 291 308 318 318 320 320
210 188 200 202 212 238 245 257 264 267 226 190 229 243 310 316 344 330 343 326 328 327 316 316 306 302 294 282 271 273 277 286 293 291 287 174 196 267 285 301 316 316 309
232 214 223 214 203 210 228 229 191 216 165 226 257 2 27 338 355 347 342 343 327 330 324 316 310 309 292 293 285 273 268 277 276 273 272 282 185 214 249 279 294 301 298
196 175 177 189 193 196 169 185 196 204 231 265 327 18 28 345 14 349 339 317 326 329 308 307 304 297 290 287 282 271 268 266 264 272 278 282 284 207 217 233 260 283 290
172 175 176 179 169 179 173 200 216 178 227 59 65 280 313 357 8 326 326 324 346 307 310 313 310 307 304 299 293 289 283 280 277 270 271 268 272 286 271 233 235 245 278
180 181 188 186 191 189 184 226 243 63 190 134 216 264 342 318 321 320 316 323 329 312 318 318 322 318 305 294 289 281 276 273 272 271 283 293 281 277 274 272 265 232 261
168 198 206 201 188 206 209 211 215 223 221 254 251 271 296 310 311 302 312 319 308 312 319 333 313 312 299 287 295 295 286 285 283 280 283 275 280 281 279 278 277 255 216
199 202 212 210 197 221 223 245 238 271 262 273 273 282 287 293 295 295 295 316 309 308 320 303 317 316 307 303 307 289 314 294 255 261 279 275 286 269 283 279 258 244 190
254 229 219 231 216 224 232 260 322 328 316 314 316 315 298 291 284 285 317 311 324 312 310 306 314 307 305 302 303 302 288 288 255 250 290 299 283 299 273 265 282 274 282
228 231 224 227 230 234 266 247 249 257 229 235 237 285 323 289 301 313 316 316 311 307 305 326 303 305 299 298 297 289 289 265 323 279 292 286 309 294 319 342 299 256 239
244 204 237 226 220 211 225 239 265 295 298 339 285 323 310 318 318 314 318 323 318 312 319 314 318 307 296 289 289 275 285 292 301 285 287 211 256 259 328 299 314 302 301
179 220 164 175 184 168 214 274 273 288 314 323 317 316 306 297 313 324 327 321 320 307 312 305 295 296 291 282 275 280 283 296 271 272 285 288 313 287 285 315 329 300 272
175 192 158 164 166 202 240 247 274 299 322 324 330 311 321 325 322 325 326 314 323 315 305 299 295 286 283 276 272 266 242 252 274 282 286 291 303 309 322 289 283 291 294